STARLINK-11500, 62472

Orbit data source: Space-Track

STARLINK-11500, 62472 is a payload satellite owned by SpaceX/Seattle (US) in LEO that was launched on Tue, 31 Dec 2024 UTC via an FALCON 9 launch vehicle from the Air Force Eastern Test Range (AFETR). Payloads include a variety of satellites, spacecraft, and rockets equipped with specific instruments for various scientific and technological missions. These include communications satellites like Starlink; space stations such as the ISS; scientific satellites like the Hubble; Earth observation satellites from companies like Planet Labs, Umbra, and HawkEye 360; GPS; miniature CubeSats for education and research; and military/defense satellites.

Loading next visibility...
STARLINK-11500 details
Identifier
62472, 2024-254L
Orbit
LEO
Last TLE update6 hours ago
Origin
Flag of USSpaceX/Seattle (US)
ManufacturerSpaceX/Seattle
MissionOperational spacecraft
Bus & MotorSTARLINK V2M, Unknown motor
Mass730 kg wet, ~700 kg dry
Launch date (UTC)
2024-12-31 (4 weeks ago)
Launch vehicle
FALCON 9
Launch site
Air Force Eastern Test Range (AFETR)
Object type
Payload
Rocket body
Debris
Shape & HBRUnknown
Radar Cross SectionLarge (>1 m²)

Expand to show TLE details & history

TLE from 6 hours ago
0 STARLINK-11500
1 62472U 24254L   25025.56426466  .00052403  00000-0  22282-3 0  9994
2 62472  42.9918 164.8171 0001185 208.8186 151.2622 15.84445584  4665
Epoch: 2025-01-25T13:32Z
Definitive object data (Epoch: 2025-01-25T13:32:32.466Z)
Latitude0.00003°
Longitude-163.42941°
Altitude318.351 km
Speed7.719 km/s
True Right ascension10h 59m 16s
True Declination0° 00' 00"
Sunlit
Object was in full shadow at TLE epoch
Visualization TLE readout
Latitude-43.12908°
Longitude107.47027°
Altitude330.723 km
Speed7.711 km/s
Apparent Right ascension06h 48m 30s
Apparent Declination-44° 31' 42"
Sunlit
Object is in daylight
Visualization observer readout
Local Sidereal Time20:34:14
Azimuth112.003° ESE
Elevation-69.981°
Doppler factor1
Orbital elements
Apogee altitude320.674 km
Perigee altitude319.087 km
Semi-major axis6,698.018 km
Eccentricity0.0001185
Inclination42.9918°
RAAN164.8171°
Arg. of periapsis208.8186°
True anomaly151.26873°
Mean anomaly151.2622°
Eccentric anomaly151.26546°
Mean motion3.95935 °/min
BSTAR0.00022282
Orbital period90.92 mins
Loading maneuver chart data...
Loading historical data...
Loading historical data...
Loading historical data...
Loading historical data...
Loading historical data...
Loading historical data...
Loading historical data...

STARLINK-11500 Visibility forecast

Observer location: undefined°, undefined

Span
Click to sort rows by Start time (UTC) header in descending order
Start Az.
Max El. time (UTC)
Max El. Az.
Max El.
End time (UTC)
End Az.
4 mins2025-01-26 12:27:20.626Z211.488° SW2025-01-26 12:29:20.626Z143.536° SSE27.636°2025-01-26 12:31:20.626Z88.971° E
4 mins2025-01-26 15:38:20.626Z302.704° NW2025-01-26 15:39:20.626Z334.16° NNW31.579°2025-01-26 15:42:20.626Z79.636° E
|